EW4543 Weather Reports


Display with metric or nautical units.
time (UTC)temp
F
wind
direction
speed
MPH
gust
MPH
rain 1hr
in
rain 24hr
in
rain mn
in
humidity
%
barometer
mb
20260508173032 78 217 0.0 3.0 0.00 0.00 0.00 42 1012.9
20260508171532 78 162 0.0 2.0 0.00 0.00 0.00 41 1012.8
20260508170034 76 121 0.0 2.0 0.00 0.00 0.00 43 1012.9
20260508164534 75 133 0.0 2.0 0.00 0.00 0.00 51 1012.8
20260508163022 73 149 0.0 1.0 0.00 0.00 0.00 53 1013.0
20260508161515 69 299 0.0 1.0 0.00 0.00 0.00 66 1013.0
20260508160011 66 299 0.0 1.0 0.00 0.00 0.00 69 1013.0
20260508154507 63 299 0.0 1.0 0.00 0.00 0.00 73 1013.1
20260508153002 59 297 0.0 1.0 0.00 0.00 0.00 80 1013.0
20260508151559 55 297 0.0 0.0 0.00 0.00 0.00 82 1012.9
20260508150056 53 297 0.0 0.0 0.00 0.00 0.00 87 1013.1
20260508144554 50 297 0.0 0.0 0.00 0.00 0.00 94 1013.0
20260508143057 49 297 0.0 0.0 0.00 0.00 0.00 95 1013.0
20260508141603 48 297 0.0 0.0 0.00 0.00 0.00 95 1012.9
20260508140050 48 297 0.0 0.0 0.00 0.00 0.00 95 1012.8
20260508134551 47 297 0.0 0.0 0.00 0.00 0.00 95 1012.7
20260508133047 48 297 0.0 0.0 0.00 0.00 0.00 95 1012.5
20260508130034 48 297 0.0 0.0 0.00 0.00 0.00 95 1012.3
20260508124514 48 297 0.0 0.0 0.00 0.00 0.00 95 1012.3
20260508123015 48 297 0.0 0.0 0.00 0.00 0.00 95 1012.2
20260508121510 48 297 0.0 0.0 0.00 0.00 0.00 95 1012.3
20260508120008 48 297 0.0 0.0 0.00 0.00 0.00 95 1012.2
20260508114506 49 297 0.0 0.0 0.00 0.00 0.00 95 1012.2
20260508113005 49 297 0.0 0.0 0.00 0.00 0.00 95 1012.2
20260508111505 49 297 0.0 0.0 0.00 0.00 0.00 95 1012.1
20260508110002 50 297 0.0 0.0 0.00 0.00 0.00 95 1012.1
20260508104600 50 297 0.0 0.0 0.00 0.00 0.00 95 1012.3
20260508103108 50 297 0.0 0.0 0.00 0.00 0.00 95 1012.3
20260508101558 51 297 0.0 0.0 0.00 0.00 0.00 94 1012.3
20260508100055 51 297 0.0 0.0 0.00 0.00 0.00 94 1012.3
20260508094552 51 297 0.0 0.0 0.00 0.00 0.00 94 1012.3
20260508093058 52 297 0.0 0.0 0.00 0.00 0.00 94 1012.3
20260508091549 52 297 0.0 0.0 0.00 0.00 0.00 94 1012.3
20260508090055 52 297 0.0 0.0 0.00 0.00 0.00 94 1012.1
20260508084545 53 297 0.0 0.0 0.00 0.00 0.00 94 1012.1
20260508083047 53 297 0.0 0.0 0.00 0.00 0.00 94 1012.2
20260508081541 53 297 0.0 0.0 0.00 0.00 0.00 94 1012.2
20260508080045 54 297 0.0 0.0 0.00 0.00 0.00 94 1012.2
20260508074536 54 297 0.0 0.0 0.00 0.00 0.00 94 1012.2
20260508073040 55 297 0.0 0.0 0.00 0.00 0.00 93 1012.1
20260508071535 55 297 0.0 0.0 0.00 0.00 0.00 93 1012.1
20260508070031 55 297 0.0 0.0 0.00 0.00 0.00 93 1012.1
20260508064538 56 297 0.0 0.0 0.00 0.00 0.00 93 1012.1
20260508063039 56 297 0.0 0.0 0.00 0.00 0.00 93 1012.2
20260508061531 56 297 0.0 0.0 0.00 0.00 0.00 92 1012.3
20260508060029 57 297 0.0 0.0 0.00 0.00 0.00 92 1012.3
20260508054528 57 297 0.0 0.0 0.00 0.00 0.00 91 1012.4
20260508053028 58 297 0.0 0.0 0.00 0.00 0.00 91 1012.4
20260508051527 58 297 0.0 0.0 0.00 0.00 0.00 90 1012.5
20260508050034 58 297 0.0 0.0 0.00 0.00 0.00 89 1012.6
20260508044526 59 297 0.0 0.0 0.00 0.00 0.00 88 1012.5
20260508043026 60 297 0.0 0.0 0.00 0.00 0.00 87 1012.4
20260508041525 60 297 0.0 0.0 0.00 0.00 0.00 85 1012.4
20260508040034 61 298 0.0 0.0 0.00 0.00 0.00 84 1012.2
20260508034524 62 297 0.0 0.0 0.00 0.00 0.00 82 1012.0
20260508033023 63 297 0.0 0.0 0.00 0.00 0.00 80 1011.9
20260508031523 65 297 0.0 0.0 0.00 0.00 0.00 78 1011.8
20260508030026 66 297 0.0 0.0 0.00 0.00 0.00 75 1011.6
20260508024522 68 297 0.0 0.0 0.00 0.00 0.00 73 1011.6
20260508023022 70 297 0.0 1.0 0.00 0.00 0.00 69 1011.5
20260508021521 74 297 0.0 1.0 0.00 0.00 0.00 60 1011.4
20260508020029 75 269 0.0 1.0 0.00 0.00 0.00 56 1011.4
20260508014521 77 257 0.0 1.0 0.00 0.00 0.00 53 1011.5
20260508013018 75 288 0.0 2.0 0.00 0.00 0.00 55 1011.5
20260508011519 75 247 0.0 2.0 0.00 0.00 0.00 56 1011.5
20260508010017 76 221 1.0 3.0 0.00 0.00 0.00 58 1011.6
20260508004515 76 256 1.0 3.0 0.00 0.00 0.00 56 1011.7
20260508003015 76 231 0.0 3.0 0.00 0.00 0.00 55 1011.7
20260508001534 76 352 1.0 6.0 0.00 0.00 0.00 56 1011.7
20260508000012 76 222 1.0 5.0 0.00 0.00 0.00 55 1011.6
20260507234514 77 221 1.0 4.0 0.00 0.00 0.00 55 1011.7
20260507233014 77 250 1.0 3.0 0.00 0.00 0.00 57 1011.7
20260507231508 77 213 0.0 4.0 0.00 0.00 0.00 53 1011.8
20260507230007 77 117 1.0 4.0 0.00 0.00 0.00 57 1012.0
20260507224504 77 150 1.0 4.0 0.00 0.00 0.00 56 1012.2
20260507223001 77 251 1.0 3.0 0.00 0.00 0.00 57 1012.4
20260507221559 78 199 1.0 3.0 0.00 0.00 0.00 55 1012.6
20260507220056 79 221 1.0 3.0 0.00 0.00 0.00 57 1012.8
20260507214559 78 174 1.0 5.0 0.00 0.00 0.00 57 1013.0
20260507213052 78 275 1.0 4.0 0.00 0.00 0.00 57 1013.2
20260507211551 78 244 1.0 5.0 0.00 0.00 0.00 58 1013.3
20260507210052 79 233 1.0 4.0 0.00 0.00 0.00 56 1013.3
20260507204552 80 231 1.0 3.0 0.00 0.00 0.00 57 1013.5
20260507203042 78 283 1.0 5.0 0.00 0.00 0.00 57 1013.5
20260507201551 78 292 2.0 4.0 0.00 0.00 0.00 56 1013.7
20260507200038 77 234 1.0 2.0 0.00 0.00 0.00 58 1013.8
20260507194535 76 219 1.0 4.0 0.00 0.00 0.00 59 1014.0
20260507193107 76 237 1.0 5.0 0.00 0.00 0.00 58 1014.1
20260507191551 77 257 1.0 4.0 0.00 0.00 0.00 58 1014.2
20260507190046 77 233 1.0 3.0 0.00 0.00 0.00 57 1014.3
20260507184538 75 162 1.0 3.0 0.00 0.00 0.00 56 1014.5
20260507183038 75 248 0.0 4.0 0.00 0.00 0.00 60 1014.6
20260507181537 75 293 0.0 3.0 0.00 0.00 0.00 59 1014.6
20260507180036 74 244 1.0 3.0 0.00 0.00 0.00 59 1014.7
20260507174539 74 126 1.0 3.0 0.00 0.00 0.00 63 1014.7